IRIDIUM 33 DEB, 35929

Orbit data source: Space-Track

IRIDIUM 33 DEB, 35929 is space debris in LEO originally from a launch on Sun, 14 Sep 1997 UTC launched from the Tyuratam Missile And Space Complex (TTMTR). The debris from Iridium 33, an American commercial communications satellite, has been tracked extensively since its accidental collision with the defunct Russian satellite Cosmos 2251 in 2009. This event, occurring at high speed in low Earth orbit (LEO), generated thousands of pieces of space debris, significantly increasing the risk of further collisions. The Iridium 33 debris cloud has impacted space traffic management and orbital debris mitigation strategies, making it a subject of ongoing study in space situational awareness.

Loading next visibility...
Identifier
35929, 1997-051UN
Orbit
LEO
Country
Flag of USUS
Related business
Manufacturer
Unknown
Mission
Spacecraft
Bus & Motor
Unknown
Mass
Unknown
Launch date (UTC)
1997-09-14 (28 years ago)
Launch vehicle
Unknown
Launch site
Tyuratam Missile And Space Complex (TTMTR)
Object type
Payload
Rocket body
Debris
Shape & HBR
Unknown shape, 0.1 m
Radar Cross Section
Small (<0.1 m²)

Expand to show TLE details & history
Last TLE update: 1 day ago

TLE from 1 day ago
0 IRIDIUM 33 DEB
1 35929U 97051UN  25351.63153116  .00028257  00000-0  21012-2 0  9994
2 35929  86.3329 310.3099 0017387  21.8082 338.3888 15.02734455878531
Epoch: 2025-12-17T15:09Z
TLE epoch observation values (Epoch: 2025-12-17T15:09:24.292Z)
Latitude
0.00002°
Longitude
-3.53993°
Altitude
550.403 km
Speed
7.593 km/s
True Right ascension
20h 41m 14s
True Declination
0° 00' 00"
Sunlit
Object was in daylight at epoch
Visualization orbit readout
Latitude
Unknown
Longitude
Unknown
Altitude
Unknown
Speed
Unknown
Apparent Right ascension
Unknown
Apparent Declination
Unknown
Sunlit
N/A
Visualization observer readout
Local Sidereal Time
19:24:50
Azimuth
Unknown
Elevation
Unknown
Doppler factor
Unknown
Orbital elements
Apogee altitude
567.394 km
Perigee altitude
543.283 km
Semi-major axis
6,933.475 km
Eccentricity
0.00174
Inclination
86.3329°
RAAN
310.3099°
Arg. of periapsis
21.8082°
True anomaly
338.31527°
Mean anomaly
338.3888°
Eccentric anomaly
338.35205°
Mean motion
3.75938 °/min
Orbital period
95.76 mins
BSTAR
0.0021012
Loading maneuver chart data...
Computing Atmospheric mass density...

Documentation

Showing up to 5 results
|